Weather History for Sedalia, MO

Change the Weather History Date:

Friday, November 16, 2012

  Actual Average Record
Temperature  
Mean Temperature 47 °F 46 °F  
Max Temperature 61 °F 56 °F 80 °F (1952)
Min Temperature 33 °F 38 °F 11 °F (1955)
Degree Days  
Heating Degree Days 18 19  
Month to date heating degree days 257 245  
Since 1 July heating degree days 616 536  
Cooling Degree Days 0 0  
Month to date cooling degree days 4 0  
Year to date cooling degree days 2111 1487  
Moisture  
Dew Point 36 °F    
Average Humidity 63    
Maximum Humidity 85    
Minimum Humidity 40    
Precipitation  
Precipitation 0.00 in 0.09 in 1.79 in (1964)
Month to date precipitation 1.36 1.76  
Year to date precipitation 29.28 37.45  
Sea Level Pressure  
Sea Level Pressure 30.42 in    
Wind  
Wind Speed 3 mph (ESE)    
Max Wind Speed 7 mph    
Max Gust Speed 8 mph    
Visibility 9 miles    
Events      
T = Trace of Precipitation, MM = Missing Value Source: NWS Daily Summary

Daily Weather History Graph

Daily Weather History Graph

Search for Another Location

Airport:

Trip Planner

Search our weather history database for the weather conditions in past years. The results will help you decide how hot, cold, wet, or windy it might be!

Date:

Astronomy

Nov. 16, 2012 Rise Set
Actual Time 6:56 AM CST 4:58 PM CST
Civil Twilight 6:28 AM CST 5:26 PM CST
Nautical Twilight 5:55 AM CST 5:58 PM CST
Astronomical Twilight 5:24 AM CST 6:30 PM CST
Moon 9:51 AM CST (11/16) 7:58 PM CST (11/16)
Length of Visible Light 10h 58m
Length of Day
10h 01m
Waxing Crescent, 12% of the Moon is Illuminated
Nov 16
Waxing Crescent
Nov 20
First Quarter
Nov 28
Full
Dec 6
Last Quarter
Dec 13
New

Hourly Weather History & Observations

Time (CST) Temp. Windchill Dew Point Humidity Pressure Visibility Wind Dir Wind Speed Gust Speed Precip Events Conditions
12:53 AM 44.1 °F - 34.0 °F 68% 30.39 in 10.0 mi Calm Calm - N/A   Clear
1:53 AM 43.0 °F 41.3 °F 34.0 °F 71% 30.40 in 10.0 mi West 3.5 mph - N/A   Clear
2:53 AM 39.9 °F - 33.1 °F 77% 30.40 in 10.0 mi Calm Calm - N/A   Clear
3:53 AM 37.9 °F 33.5 °F 33.1 °F 83% 30.41 in 9.0 mi WNW 5.8 mph - N/A   Clear
4:53 AM 39.9 °F 36.7 °F 34.0 °F 79% 30.41 in 9.0 mi NW 4.6 mph - N/A   Clear
5:53 AM 37.9 °F 35.5 °F 34.0 °F 86% 30.43 in 7.0 mi NNW 3.5 mph - N/A   Clear
6:53 AM 37.0 °F - 33.1 °F 86% 30.43 in 7.0 mi Calm Calm - N/A   Clear
7:53 AM 37.0 °F - 34.0 °F 89% 30.45 in 5.0 mi Calm Calm - N/A   Clear
8:53 AM 43.0 °F - 37.0 °F 80% 30.46 in 7.0 mi Calm Calm - N/A   Clear
9:53 AM 48.9 °F - 39.0 °F 69% 30.47 in 10.0 mi Calm Calm - N/A   Clear
10:53 AM 54.0 °F - 39.0 °F 57% 30.46 in 10.0 mi East 3.5 mph - N/A   Clear
11:53 AM 57.0 °F - 37.9 °F 49% 30.45 in 10.0 mi Calm Calm - N/A   Clear
12:53 PM 59.0 °F - 36.0 °F 42% 30.43 in 10.0 mi Calm Calm - N/A   Clear
1:53 PM 61.0 °F - 37.9 °F 42% 30.41 in 10.0 mi Calm Calm - N/A   Clear
2:53 PM 61.0 °F - 37.0 °F 41% 30.40 in 10.0 mi Calm Calm - N/A   Clear
3:53 PM 57.9 °F - 37.9 °F 47% 30.41 in 10.0 mi East 4.6 mph - N/A   Clear
4:53 PM 57.0 °F - 37.0 °F 47% 30.40 in 10.0 mi Calm Calm - N/A   Clear
5:53 PM 53.1 °F - 37.0 °F 55% 30.40 in 10.0 mi ENE 4.6 mph - N/A   Clear
6:53 PM 50.0 °F - 36.0 °F 59% 30.41 in 10.0 mi East 4.6 mph - N/A   Clear
7:53 PM 46.9 °F - 37.0 °F 68% 30.41 in 10.0 mi ESE 4.6 mph - N/A   Clear
8:53 PM 46.9 °F - 36.0 °F 66% 30.41 in 10.0 mi SE 4.6 mph - N/A   Clear
9:53 PM 44.1 °F 40.8 °F 35.1 °F 71% 30.41 in 10.0 mi SSE 5.8 mph - N/A   Clear
10:53 PM 43.0 °F 39.5 °F 34.0 °F 71% 30.42 in 10.0 mi SSE 5.8 mph - N/A   Clear
11:53 PM 42.1 °F 38.4 °F 33.1 °F 70% 30.42 in 10.0 mi SSE 5.8 mph - N/A   Clear